Location: Mahannah Oil Field
(37.4664°N, 96.6003°W)
Time: 01:25:10
(UTC+00:00)

A-11 Canister half - Pass Details

Date: 31 January 2021
Orbit: 1524 x 1684 km, 47.3° (Epoch: 25 February)

Event Time Altitude Azimuth Distance (km) Brightness Sun altitude
Rises 19:49:00 0° 253° (WSW) 4,667 12.0 33.0°
Reaches altitude 10° 19:52:05 10° 256° (WSW) 3,686 11.5 32.8°
Maximum altitude 20:01:16 63° 337° (NNW) 1,683 9.5 32.1°
Drops below altitude 10° 20:10:40 10° 58° (ENE) 3,755 10.7 31.4°
Sets 20:13:50 0° 62° (ENE) 4,760 11.2 31.1°
